Change the Weather History Date:

Monday, December 22, 2014

  Actual Average Record
Temperature  
Mean Temperature 34 °F -  
Max Temperature 39 °F 38 °F 61 °F (1949)
Min Temperature 30 °F 20 °F -4 °F (1942)
Degree Days  
Heating Degree Days 30    
Moisture  
Dew Point 32 °F    
Average Humidity 88    
Maximum Humidity 100    
Minimum Humidity 69    
Precipitation  
Precipitation 0.04 in - - ()
Sea Level Pressure  
Sea Level Pressure 30.37 in    
Wind  
Wind Speed 6 mph (NNE)    
Max Wind Speed 10 mph    
Max Gust Speed -    
Visibility 7 miles    
Events Rain    
Averages and records for this station are not official NWS values.
T = Trace of Precipitation, MM = Missing Value Source: NWS Daily Summary

Daily Weather History Graph

Daily Weather History Graph

Search for Another Location

Airport or City:

Trip Planner

Search our weather history database for the weather conditions in past years. The results will help you decide how hot, cold, wet, or windy it might be!

Date:

Astronomy

Dec. 22, 2014 Rise Set
Actual Time 7:12 AM EST 4:14 PM EST
Civil Twilight 6:39 AM EST 4:46 PM EST
Nautical Twilight 6:04 AM EST 5:22 PM EST
Astronomical Twilight 5:29 AM EST 5:56 PM EST
Moon 7:20 AM EST (12/22) 5:21 PM EST (12/22)
Length of Visible Light 10h 06m
Length of Day
9h 02m
New Moon, 1% of the Moon is Illuminated
Dec 22
New Moon
Dec 28
First Quarter
Jan 4
Full
Jan 13
Last Quarter
Jan 20
New

Hourly Weather History & Observations

Time (EST) Temp. Windchill Dew Point Humidity Pressure Visibility Wind Dir Wind Speed Gust Speed Precip Events Conditions
12:54 AM 32.0 °F 26.4 °F 23.0 °F 69% 30.38 in 10.0 mi North 5.8 mph - N/A   Overcast
1:54 AM 32.0 °F 25.6 °F 23.0 °F 69% 30.40 in 10.0 mi North 6.9 mph - N/A   Overcast
2:54 AM 32.0 °F 24.8 °F 23.0 °F 69% 30.39 in 10.0 mi NNE 8.1 mph - N/A   Overcast
3:54 AM 30.9 °F 26.2 °F 24.1 °F 76% 30.38 in 10.0 mi North 4.6 mph - N/A   Overcast
4:54 AM 30.9 °F - 24.1 °F 76% 30.39 in 10.0 mi Calm Calm - N/A   Overcast
5:54 AM 30.9 °F 26.2 °F 25.0 °F 79% 30.40 in 10.0 mi North 4.6 mph - N/A   Overcast
6:54 AM 30.9 °F 25.2 °F 25.0 °F 79% 30.41 in 10.0 mi NNE 5.8 mph - N/A   Overcast
7:54 AM 32.0 °F 27.5 °F 25.0 °F 75% 30.42 in 10.0 mi North 4.6 mph - N/A   Overcast
8:19 AM 32.0 °F - 25.0 °F 75% 30.41 in 10.0 mi Calm Calm - N/A   Overcast
8:30 AM 32.0 °F - 26.1 °F 79% 30.42 in 10.0 mi Calm Calm - N/A   Overcast
8:54 AM 33.1 °F 27.7 °F 26.1 °F 75% 30.42 in 10.0 mi NNE 5.8 mph - N/A   Overcast
9:54 AM 35.1 °F 30.1 °F 28.9 °F 78% 30.42 in 10.0 mi NE 5.8 mph - N/A   Overcast
10:54 AM 37.0 °F 32.4 °F 30.0 °F 76% 30.40 in 10.0 mi NE 5.8 mph - N/A   Overcast
11:54 AM 39.0 °F 34.8 °F 32.0 °F 76% 30.37 in 10.0 mi NNE 5.8 mph - N/A   Overcast
12:54 PM 39.0 °F 35.7 °F 35.1 °F 86% 30.38 in 10.0 mi NE 4.6 mph - 0.00 in Rain Light Rain
1:54 PM 39.9 °F 35.1 °F 35.1 °F 83% 30.36 in 10.0 mi NNE 6.9 mph - 0.00 in   Overcast
2:54 PM 39.0 °F 32.3 °F 35.1 °F 86% 30.35 in 10.0 mi NE 10.4 mph - N/A   Overcast
3:50 PM 37.4 °F 31.4 °F 35.6 °F 93% 30.34 in 9.0 mi NNE 8.1 mph - N/A   Overcast
3:54 PM 37.9 °F 32.1 °F 36.0 °F 93% 30.35 in 9.0 mi NNE 8.1 mph - N/A   Overcast
4:03 PM 37.9 °F 31.5 °F 35.1 °F 89% 30.35 in 9.0 mi NNE 9.2 mph - N/A   Overcast
4:27 PM 37.0 °F 33.3 °F 36.0 °F 96% 30.36 in 2.0 mi NE 4.6 mph - 0.00 in Rain Light Rain
4:37 PM 37.0 °F 32.4 °F 36.0 °F 96% 30.36 in 4.0 mi NE 5.8 mph - 0.00 in   Overcast
4:49 PM 37.4 °F 32.1 °F 35.6 °F 93% 30.35 in 2.5 mi NE 6.9 mph - 0.00 in Rain Light Rain
4:54 PM 37.0 °F 32.4 °F 36.0 °F 96% 30.36 in 3.0 mi NE 5.8 mph - 0.00 in Rain Light Rain
5:54 PM 37.0 °F 32.4 °F 36.0 °F 96% 30.36 in 7.0 mi NNE 5.8 mph - 0.01 in Rain Light Rain
6:43 PM 37.0 °F 34.5 °F 36.0 °F 96% 30.35 in 5.0 mi NE 3.5 mph - 0.00 in Rain Light Rain
6:54 PM 37.0 °F 32.4 °F 36.0 °F 96% 30.36 in 5.0 mi NNE 5.8 mph - 0.01 in Rain Light Rain
7:54 PM 36.0 °F 32.1 °F 36.0 °F 100% 30.37 in 5.0 mi North 4.6 mph - 0.00 in Rain Light Rain
8:14 PM 36.0 °F 30.3 °F 35.1 °F 97% 30.35 in 4.0 mi NNE 6.9 mph - 0.00 in Rain Light Rain
8:54 PM 36.0 °F 29.6 °F 35.1 °F 97% 30.35 in 5.0 mi NNE 8.1 mph - 0.02 in Rain Light Rain
9:10 PM 36.0 °F 29.6 °F 35.1 °F 97% 30.34 in 6.0 mi NNE 8.1 mph - 0.00 in   Overcast
9:23 PM 36.0 °F 29.6 °F 35.1 °F 97% 30.34 in 4.0 mi NNE 8.1 mph - 0.00 in Rain Light Rain
9:47 PM 34.0 °F 29.8 °F 34.0 °F 100% 30.34 in 4.0 mi North 4.6 mph - 0.00 in Rain Light Rain
9:54 PM 35.1 °F 30.1 °F 34.0 °F 96% 30.35 in 4.0 mi NNE 5.8 mph - 0.00 in Rain Light Rain
10:20 PM 35.1 °F 32.2 °F 34.0 °F 96% 30.35 in 2.0 mi NW 3.5 mph - 0.00 in Rain Light Rain
10:25 PM 35.1 °F 32.2 °F 35.1 °F 100% 30.35 in 2.0 mi WNW 3.5 mph - 0.00 in Rain Light Rain
10:28 PM 35.1 °F 32.2 °F 35.1 °F 100% 30.35 in 1.5 mi WNW 3.5 mph - 0.00 in Rain Light Rain
10:45 PM 35.6 °F 29.2 °F 33.8 °F 93% 30.34 in 1.8 mi NE 8.1 mph - N/A   Overcast
10:54 PM 34.0 °F 26.6 °F 33.1 °F 96% 30.35 in 1.8 mi NNE 9.2 mph - 0.00 in   Overcast
11:10 PM 34.0 °F 28.0 °F 34.0 °F 100% 30.33 in 2.0 mi NNE 6.9 mph - N/A   Overcast
11:22 PM 35.6 °F 29.9 °F 33.8 °F 93% 30.33 in 3.0 mi NE 6.9 mph - N/A   Overcast
11:54 PM 35.1 °F 30.1 °F 34.0 °F 96% 30.31 in 5.0 mi NE 5.8 mph - N/A   Overcast